E0050 Weather Reports


time (UTC)temp
F
wind
direction
speed
knots
gust
knots
rain 1hr
in
rain 24hr
in
rain mn
in
humidity
%
barometer
mb
20260507213019 56 273 0.0 0.0 0.00 0.00 0.00 83 1013.2
20260507211516 56 273 0.0 0.0 0.00 0.00 0.00 82 1013.0
20260507210043 57 273 0.0 0.0 0.00 0.00 0.00 82 1012.8
20260507204509 57 273 0.0 0.0 0.00 0.00 0.00 82 1012.8
20260507203040 58 273 0.0 0.0 0.00 0.00 0.00 81 1012.7
20260507201514 59 273 0.0 0.0 0.00 0.00 0.00 80 1012.6
20260507200043 60 273 0.0 0.0 0.00 0.00 0.00 80 1012.4
20260507194517 60 273 0.0 1.7 0.00 0.00 0.00 79 1012.3
20260507193051 60 271 0.0 3.5 0.00 0.00 0.00 79 1012.2
20260507191522 61 277 0.0 2.6 0.00 0.00 0.00 78 1012.1
20260507190056 61 264 1.7 3.5 0.00 0.00 0.00 78 1012.0
20260507184551 61 279 0.9 3.5 0.00 0.00 0.00 78 1012.1
20260507183016 62 288 0.9 4.3 0.00 0.00 0.00 77 1011.9
20260507181601 62 233 2.6 6.1 0.00 0.00 0.00 77 1012.0
20260507180123 62 255 3.5 6.1 0.00 0.00 0.00 76 1011.9
20260507174609 63 217 1.7 6.1 0.00 0.00 0.00 76 1011.9
20260507173030 63 220 4.3 7.8 0.00 0.00 0.00 75 1011.9
20260507171523 63 221 3.5 7.0 0.00 0.00 0.00 75 1011.9
20260507170054 63 265 2.6 7.8 0.00 0.00 0.00 74 1011.8
20260507164527 64 229 5.2 8.7 0.00 0.00 0.00 74 1012.0
20260507163059 64 227 5.2 9.6 0.00 0.00 0.00 73 1012.0
20260507161553 65 222 4.3 8.7 0.00 0.00 0.00 72 1012.1
20260507160021 65 238 4.3 9.6 0.00 0.00 0.00 72 1012.1
20260507154518 65 234 4.3 7.8 0.00 0.00 0.00 72 1012.2
20260507153054 65 236 5.2 9.6 0.00 0.00 0.00 72 1012.3
20260507151524 65 239 4.3 11.3 0.00 0.00 0.00 71 1012.4
20260507150054 65 242 3.5 10.4 0.00 0.00 0.00 73 1012.4
20260507144549 65 234 5.2 10.4 0.00 0.00 0.00 72 1012.6
20260507143025 65 242 5.2 10.4 0.00 0.00 0.00 72 1012.6
20260507141553 65 231 5.2 12.2 0.00 0.00 0.00 71 1012.8
20260507140020 65 209 5.2 10.4 0.00 0.00 0.00 69 1012.8
20260507134516 66 288 5.2 10.4 0.00 0.00 0.00 70 1012.7
20260507133048 65 217 6.1 12.2 0.00 0.00 0.00 70 1012.8
20260507131555 65 199 7.0 13.0 0.00 0.00 0.00 69 1013.1
20260507130011 66 217 6.1 12.2 0.00 0.00 0.00 69 1013.1
20260507124509 65 231 6.1 10.4 0.00 0.00 0.00 68 1013.0
20260507123033 66 227 5.2 13.0 0.00 0.00 0.00 66 1013.0
20260507121530 66 211 6.1 9.6 0.00 0.00 0.00 65 1013.0
20260507114613 65 196 4.3 9.6 0.00 0.00 0.00 67 1012.9
20260507113024 66 219 4.3 10.4 0.00 0.00 0.00 66 1012.9
20260507111521 66 237 4.3 8.7 0.00 0.00 0.00 68 1013.0
20260507110053 65 269 4.3 10.4 0.00 0.00 0.00 68 1012.7
20260507104546 65 273 3.5 8.7 0.00 0.00 0.00 67 1012.8
20260507103014 64 250 4.3 8.7 0.00 0.00 0.00 67 1013.0
20260507101602 64 228 5.2 7.8 0.00 0.00 0.00 66 1013.0
20260507100121 64 268 4.3 8.7 0.00 0.00 0.00 67 1013.1
20260507094556 64 232 4.3 7.8 0.00 0.00 0.00 67 1013.3
20260507093024 64 274 5.2 8.7 0.00 0.00 0.00 68 1013.3
20260507091521 64 222 5.2 7.8 0.00 0.00 0.00 68 1013.3
20260507090055 64 229 4.3 9.6 0.00 0.00 0.00 69 1013.1
20260507084547 63 223 4.3 8.7 0.00 0.00 0.00 69 1013.0
20260507083015 63 219 4.3 7.8 0.00 0.00 0.00 70 1012.9
20260507081522 62 234 3.5 7.0 0.00 0.00 0.00 70 1012.9
20260507080047 62 230 4.3 7.0 0.00 0.00 0.00 71 1012.8
20260507074527 62 234 3.5 6.1 0.00 0.00 0.00 75 1012.9
20260507073048 61 231 2.6 6.1 0.00 0.00 0.00 80 1012.9
20260507071542 60 213 2.6 4.3 0.00 0.00 0.00 84 1012.7
20260507070018 59 220 1.7 5.2 0.00 0.00 0.00 87 1012.8
20260507064507 59 228 0.9 5.2 0.00 0.00 0.00 88 1012.6
20260507063037 59 254 1.7 3.5 0.00 0.00 0.00 89 1012.5
20260507061509 58 291 0.0 0.0 0.00 0.00 0.00 89 1012.4
20260507060039 57 291 0.0 0.0 0.00 0.00 0.00 90 1012.5
20260507054538 56 291 0.0 0.0 0.00 0.00 0.00 89 1012.5
20260507053105 54 291 0.0 0.0 0.00 0.00 0.00 89 1012.4
20260507051541 53 291 0.0 0.0 0.00 0.00 0.00 89 1012.1
20260507050023 53 291 0.0 0.0 0.00 0.00 0.00 88 1012.1
20260507044552 53 291 0.0 0.0 0.00 0.00 0.00 87 1011.9
20260507043014 53 291 0.0 0.0 0.00 0.01 0.00 87 1011.8
20260507041509 54 291 0.0 0.0 0.00 0.01 0.00 87 1011.8
20260507040041 54 291 0.0 0.0 0.00 0.01 0.00 86 1011.8
20260507034514 54 291 0.0 0.0 0.00 0.01 0.00 86 1011.8
20260507033051 55 291 0.0 0.0 0.00 0.01 0.00 86 1011.8
20260507031555 55 291 0.0 0.0 0.00 0.01 0.00 85 1011.9
20260507030005 56 291 0.0 0.0 0.00 0.01 0.00 85 1011.9
20260507024559 57 291 0.0 0.0 0.00 0.01 0.00 85 1011.8
20260507023028 57 291 0.0 0.0 0.00 0.01 0.01 85 1011.9
20260507021523 58 291 0.0 0.0 0.00 0.01 0.01 85 1011.8
20260507020050 58 291 0.9 2.6 0.00 0.01 0.01 84 1011.9
20260507014548 59 291 0.0 3.5 0.00 0.01 0.01 84 1011.9
20260507013001 59 294 0.9 2.6 0.00 0.01 0.01 84 1011.9
20260507011559 59 302 1.7 3.5 0.00 0.01 0.01 84 1012.0
20260507010032 60 323 0.9 4.3 0.00 0.01 0.01 84 1012.1
20260507004558 60 276 3.5 8.7 0.00 0.01 0.01 83 1012.2
20260507003026 60 266 3.5 7.0 0.00 0.33 0.01 83 1012.2
20260507001526 60 265 4.3 9.6 0.00 0.33 0.01 83 1012.4
20260507000053 60 256 5.2 11.3 0.00 0.33 0.01 83 1012.4
20260506234549 60 265 5.2 11.3 0.00 0.33 0.01 83 1012.6
20260506233017 60 236 7.0 10.4 0.00 0.34 0.01 82 1012.7
20260506231505 60 241 6.1 14.8 0.00 0.34 0.01 82 1012.6
20260506230034 60 246 6.1 14.8 0.00 0.34 0.01 82 1012.8
20260506224506 60 259 5.2 11.3 0.00 0.34 0.01 81 1012.7
20260506223036 60 258 6.1 13.0 0.00 0.34 0.01 81 1012.8
20260506221532 60 261 6.1 15.6 0.00 0.34 0.01 80 1012.8
20260506220106 59 279 3.5 11.3 0.00 0.34 0.01 80 1012.7
20260506214559 59 256 2.6 7.0 0.00 0.34 0.01 79 1012.7